295  
ASUS43 KOAX 280210  
RWRNE  
 
WEATHER ROUNDUP FOR NEBRASKA  
NATIONAL WEATHER SERVICE OMAHA NE  
900 PM CDT MON MAR 27 2017  
 
NOTES: SATELLITE DATA IS BEING USED TO AUGMENT CLOUD COVER ABOVE  
12000 FEET.  
"FAIR" INDICATES FEW OR NO CLOUDS BELOW 12,000 FEET WITH NO  
SIGNIFICANT WEATHER AND/OR S TO VISIBILITY
.  
 
* THESE STATIONS DO NOT REPORT WEATHER SUCH AS RAIN...SNOW OR FOG.  
 
NEZ001>004-019>022-054>056-280300-  
NEBRASKA PANHANDLE  
 
CITY SKY/WX TMP DP RH WIND PRES REMARKS
 
SCOTTSBLUFF LGT RAIN 59 33 37 VRB6 29.82R  
ALLIANCE CLOUDY 57 34 41 S14G20 29.81R  
CHADRON MOCLDY 52 35 52 NE9 29.83R  
KIMBALL CLOUDY 55 34 45 SE9 29.83R  
SIDNEY PTCLDY 52 32 46 SE10 29.83R  

 
 
NEZ057>060-069>072-079>082-280300-  
SOUTHWEST NEBRASKA  
 
CITY SKY/WX TMP DP RH WIND PRES REMARKS
 
NORTH PLATTE CLEAR 53 42 66 SE9 29.88R  
IMPERIAL CLEAR 51 39 63 SE10 29.86R  
LEXINGTON CLEAR 51 43 73 SE12G18 29.92R  
MCCOOK CLEAR 52 42 69 E9 29.89R  
OGALLALA CLEAR 56 37 49 SE9 29.85R  

 
 
NEZ005>010-023>029-035>040-094-280300-  
NORTH CENTRAL NEBRASKA  
 
CITY SKY/WX TMP DP RH WIND PRES REMARKS
 
VALENTINE CLOUDY 55 38 52 SE8 29.89R  
AINSWORTH CLOUDY 54 44 69 SE9 29.90R  
BROKEN BOW CLEAR 49 42 77 SE8 29.91R  
O'NEILL CLEAR 48 38 68 E7 29.94R  
ORD CLEAR 51 40 65 SE9 29.92R  
THEDFORD CLOUDY 53 43 68 SE8 29.89R  

 
 
NEZ041-046>049-061>064-073>077-083>087-280300-  
SOUTH CENTRAL NEBRASKA  
 
CITY SKY/WX TMP DP RH WIND PRES REMARKS
 
GRAND ISLAND CLEAR 45 42 89 S7 29.97R  
AURORA CLEAR 46 41 83 S5 29.96R  
HASTINGS CLEAR 45 40 82 SE6 29.97R  
HEBRON CLOUDY 49 42 77 CALM 29.97R  
HOLDREGE CLOUDY 46 40 80 SE9 29.93R  
KEARNEY * CLEAR 45 39 81 SE10 29.95R  
YORK CLEAR 45 41 87 CALM 29.97R  

 
 
NEZ011>018-030>034-042>045-280300-  
NORTHEAST NEBRASKA  
 
CITY SKY/WX TMP DP RH WIND PRES REMARKS
 
NORFOLK CLEAR 46 37 71 SE8 29.95R  
ALBION CLEAR 47 40 75 CALM 29.96R  
BLAIR CLOUDY 48 41 76 CALM 29.97S  
FREMONT CLEAR 44 39 81 SE3 29.98R  
TEKAMAH CLEAR 45 41 86 SE5 29.97R  
WAYNE CLEAR 43 38 83 CALM 29.96R  

 
 
NEZ050>053-065>068-078-088>093-280300-  
SOUTHEAST NEBRASKA  
 
CITY SKY/WX TMP DP RH WIND PRES REMARKS
 
LINCOLN CLEAR 45 39 79 E5 29.99R  
OMAHA EPPLEY CLOUDY 50 40 68 E5 29.97S  
BEATRICE CLOUDY 46 40 80 NE5 29.97R  
FALLS CITY CLOUDY 47 41 80 CALM 29.97R  
NEBRASKA CITY CLOUDY 47 39 74 CALM 29.98S  
PLATTSMOUTH CLOUDY 48 38 68 CALM 29.97S  

 
 
NEZ044-045-051>053-067-280300-  
OMAHA AREA  
 
CITY SKY/WX TMP DP RH WIND PRES REMARKS
 
OMAHA EPPLEY CLOUDY 50 40 68 E5 29.97S  
BLAIR CLOUDY 48 41 76 CALM 29.97S  
FREMONT CLEAR 44 39 81 SE3 29.98R  
MILLARD CLOUDY 51 42 70 CALM 29.98R  
OFFUTT AFB CLOUDY 49 41 75 CALM 29.97S  
PLATTSMOUTH CLOUDY 48 38 68 CALM 29.97S  
WAHOO MOCLDY 44 39 85 E5 29.98R  

 
 
 
CLICK HERE TO GO TO PREVIOUS BULLETINS.

The Nexlab NE Page Main Text Page